EW2817 Weather Reports


time (UTC)temp
C
wind
direction
speed
KPH
gust
KPH
rain 1hr
cm
rain 24hr
cm
rain mn
cm
humidity
%
barometer
mb
20260506002644 23 0 0.0 0.0 0.00 0.00 0.00 51 990.0
20260505235641 24 0 0.0 0.0 0.00 0.00 0.00 48 989.7
20260505232636 25 0 0.0 0.0 0.00 0.00 0.00 46 989.6
20260505225638 25 0 0.0 0.0 0.00 0.00 0.00 44 989.7
20260505222634 25 0 0.0 0.0 0.00 0.00 0.00 44 989.8
20260505221134 25 0 0.0 0.0 0.00 0.00 0.00 43 990.0
20260505214132 26 0 0.0 0.0 0.00 0.00 0.00 41 990.0
20260505212632 26 0 0.0 0.0 0.00 0.00 0.00 41 990.0
20260505211131 26 0 0.0 0.0 0.00 0.00 0.00 42 990.0
20260505205629 26 0 0.0 0.0 0.00 0.00 0.00 41 990.2
20260505204128 26 0 0.0 0.0 0.00 0.00 0.00 41 990.1
20260505201127 26 0 0.0 0.0 0.00 0.00 0.00 41 990.6
20260505195624 26 0 0.0 0.0 0.00 0.00 0.00 40 990.6
20260505194124 27 0 0.0 0.0 0.00 0.00 0.00 39 990.7
20260505192621 27 0 0.0 0.0 0.00 0.00 0.00 38 991.0
20260505191121 27 0 0.0 0.0 0.00 0.00 0.00 38 991.3
20260505185620 27 0 0.0 0.0 0.00 0.00 0.00 36 991.5
20260505184118 27 0 0.0 0.0 0.00 0.00 0.00 38 991.8
20260505182616 27 0 0.0 0.0 0.00 0.00 0.00 35 991.9
20260505181116 28 0 0.0 0.0 0.00 0.00 0.00 36 992.1
20260505175614 28 0 0.0 0.0 0.00 0.00 0.00 36 992.1
20260505174114 28 0 0.0 0.0 0.00 0.00 0.00 37 992.3
20260505172614 28 0 0.0 0.0 0.00 0.00 0.00 36 992.3
20260505171112 28 0 0.0 0.0 0.00 0.00 0.00 39 992.4
20260505165610 27 0 0.0 0.0 0.00 0.00 0.00 38 992.6
20260505162604 27 0 0.0 0.0 0.00 0.00 0.00 41 992.7
20260505161102 26 0 0.0 0.0 0.00 0.00 0.00 43 992.8
20260505152602 25 0 0.0 0.0 0.00 0.00 0.00 47 993.3
20260505151100 24 0 0.0 0.0 0.00 0.00 0.00 50 993.2
20260505124034 15 0 0.0 0.0 0.00 0.00 0.00 83 993.3
20260505122533 13 0 0.0 0.0 0.00 0.00 0.00 85 993.2
20260505121031 13 0 0.0 0.0 0.00 0.00 0.00 85 993.3
20260505115529 13 0 0.0 0.0 0.00 0.00 0.00 85 993.2
20260505114030 13 0 0.0 0.0 0.00 0.00 0.00 85 993.0
20260505112527 12 0 0.0 0.0 0.00 0.00 0.00 85 992.9
20260505101030 13 0 0.0 0.0 0.00 0.00 0.00 82 992.3
20260505095517 13 0 0.0 0.0 0.00 0.00 0.00 82 992.1
20260505094017 13 0 0.0 0.0 0.00 0.00 0.00 81 992.0
20260505092515 13 0 0.0 0.0 0.00 0.00 0.00 80 991.9
20260505091015 13 0 0.0 0.0 0.00 0.00 0.00 80 991.8
20260505085512 14 0 0.0 0.0 0.00 0.00 0.00 79 991.8
20260505084012 14 0 0.0 0.0 0.00 0.00 0.00 79 991.7
20260505081009 14 0 0.0 0.0 0.00 0.00 0.00 77 991.6
20260505075509 15 0 0.0 0.0 0.00 0.00 0.00 76 991.5
20260505074007 15 0 0.0 0.0 0.00 0.00 0.00 75 991.5
20260505072506 15 0 0.0 0.0 0.00 0.00 0.00 74 991.5
20260505071004 15 0 0.0 0.0 0.00 0.00 0.00 73 991.3
20260505065505 16 0 0.0 0.0 0.00 0.00 0.00 72 991.3
20260505062505 16 0 0.0 0.0 0.00 0.00 0.00 70 991.2
20260505061002 16 0 0.0 0.0 0.00 0.00 0.00 70 991.2
20260505055503 16 0 0.0 0.0 0.00 0.00 0.00 69 991.3
20260505054002 16 0 0.0 0.0 0.00 0.00 0.00 69 991.2
20260505051001 17 0 0.0 0.0 0.00 0.00 0.00 67 991.4
20260505040956 17 0 0.0 0.0 0.00 0.00 0.00 61 991.3
20260505035454 18 0 0.0 0.0 0.00 0.00 0.00 60 991.3
20260505033955 18 0 0.0 0.0 0.00 0.00 0.00 58 991.4
20260505032454 18 0 0.0 0.0 0.00 0.00 0.00 55 991.4
20260505030954 18 0 0.0 0.0 0.00 0.00 0.00 53 991.4
20260505025454 18 0 0.0 0.0 0.00 0.00 0.00 52 991.3
20260505023952 18 0 0.0 0.0 0.00 0.00 0.00 51 991.3
20260505022451 19 0 0.0 0.0 0.00 0.00 0.00 51 991.2
20260505020949 19 0 0.0 0.0 0.00 0.00 0.00 51 991.0
20260505013945 19 0 0.0 0.0 0.00 0.00 0.00 49 990.8
20260505012445 20 0 0.0 0.0 0.00 0.00 0.00 49 990.6
20260505010945 20 0 0.0 0.0 0.00 0.00 0.00 51 990.4
20260505005445 21 0 0.0 0.0 0.00 0.00 0.00 48 990.3
20260505003946 21 0 0.0 0.0 0.00 0.00 0.00 47 990.1